Погода в Валуйском

Россия / Орловская область     53°08′50″N   36°19′03″E
темп.,
°C
ветер,
м/с
пор.,
м/с
влажн.,
%
обл.,
%
осадки,
мм/ч
давл.,
гПа
погр.,
м
16 мая, вс
вс1600:00+12ююз35940 0.0 101275
03:00+11ююз35950 0.0 101380
06:00+12ю249335 0.0 101390
09:00+17ююз247649 0.0 1013374
12:00+21ююз46590 0.9 10131371
15:00+22ююз465543 1.0 10131994
18:00+21юз2469100 0.0 1013227
21:00+16в1179100 0.0 101311
17 мая, пн
пн1700:00+14всв33859 0.0 101338
03:00+13в378720 0.0 1013111
06:00+14в51389100 1.1 1012286
09:00+19в610775 1.1 1011442
12:00+24вюв710600 0.0 1010775
15:00+25вюв712615 0.0 10081400
18:00+23вюв714664 0.0 1007636
21:00+18вюв6157833 0.0 1007408
18 мая, вт
вт1800:00+17юв6158110 0.0 1007370
03:00+16юв51286100 0.0 1007266
06:00+15юв5128991 0.0 1007319
09:00+20ююв6117957 0.1 1007731
12:00+21ю6965100 0.0 1008993
15:00+23ююв476198 0.0 10071339
18:00+20ю117999 1.0 100626
21:00+17в2286100 1.1 100514
19 мая, ср
ср1900:00+16юв349059 0.2 100555
03:00+15в459386 0.3 100383
06:00+15ююв4119595 0.4 1003452
09:00+18ююв577820 0.4 1004903
12:00+19юв6971100 0.7 10041239
15:00+18ю6876100 2.6 10041074
18:00+16ююв698698 1.6 1004608
21:00+13ююв379241 2.3 1004142
20 мая, чт
чт2000:00+11юв3896100 0.0 1004205
03:00+10ююв379719 0.0 1004180
06:00+10ююв479797 0.0 1004325
09:00+12ююз5792100 0.5 1004597
12:00+10ююз61093100 0.4 1006744
15:00+11юз71190100 0.6 10081033
18:00+11зюз71285100 0.1 1009929
21:00+9юз5109156 0.1 1011316